528  
ASUS45 KCYS 091410  
RWRWY  
 
WYOMING REGIONAL WEATHER ROUNDUP  
NATIONAL WEATHER SERVICE CHEYENNE WY  
800 AM MDT SUN AUG 09 2020  
 
NOTE: "FAIR" INDICATES FEW OR NO CLOUDS BELOW 12,000 FEET  
WITH NO SIGNIFICANT WEATHER AND/OR S TO VISIBILITY
.  
 
WYZ001-091500-   
..YELLOWSTONE NATIONAL PARK
 
 
 
CITY SKY/WX TMP DP RH WIND PRES REMARKS
 
LK YELLOWSTONE N/A 43 34 70 CALM 30.31S  
W YELLOWSTONE NOT AVBL  
 

 
WYZ002>013-054>058-071-098>099-091500-   
..NORTHERN WYOMING
 
 
 
CITY SKY/WX TMP DP RH WIND PRES REMARKS
 
JACKSON SUNNY 50 36 58 NE5 30.23R  
CODY SUNNY 64 40 41 NW10 30.15S  
GREYBULL SUNNY 61 42 49 SE3 30.03R  
WORLAND SUNNY 66 38 35 SW8 30.07R  
SHERIDAN SUNNY 68 37 32 NW10 30.11R  
BUFFALO SUNNY 66 34 30 N21G28 30.16R  
GILLETTE SUNNY 68 38 33 NW20G28 30.07R  
HULETT FAIR 70 48 46 W10G17 30.07R  
NEWCASTLE FAIR 70 43 37 NW5 30.02S  
 

 
WYZ014>020-022>026-101>103-091500-   
..CENTRAL WYOMING
 
 
 
CITY SKY/WX TMP DP RH WIND PRES REMARKS
 
BIG PINEY SUNNY 50 34 54 E6 30.29R  
PINEDALE SUNNY 46 36 66 CALM 30.31R  
DUBOIS FAIR 59 28 31 N5 30.23R  
LANDER SUNNY 66 37 34 NE3 30.14R  
RIVERTON SUNNY 69 35 28 NW5 30.13R  
CASPER SUNNY 71 35 26 SW7 30.11R  
DOUGLAS SUNNY 62 42 47 NW3 30.09R  
 

 
WYZ021-027>030-104>119-091500-   
..SOUTHERN WYOMING
 
 
 
CITY SKY/WX TMP DP RH WIND PRES REMARKS
 
EVANSTON SUNNY 60 16 18 S3 30.30R  
KEMMERER NOT AVBL  
FORT BRIDGER NOT AVBL  
ROCK SPRINGS SUNNY 60 22 23 S3 30.27R  
DIXON FAIR 55 22 26 SE7 30.30S  
RAWLINS SUNNY 60 27 28 CALM 30.27R  
SARATOGA FAIR 61 21 21 SE9 30.29R  
LARAMIE SUNNY 59 19 21 S6 30.29R  
CHEYENNE SUNNY 70 24 17 W13 30.18R  
TORRINGTON SUNNY 61 51 70 CALM 30.02R  
PINE BLUFFS FAIR 63 34 34 W5 30.11R  
 

 
 
 
CLICK HERE TO GO TO PREVIOUS BULLETINS.

The Nexlab WY Page Main Text Page